STARLINK-1630 (46132 NORAD) Tracking and Keplerian Element Data

This shows tracking and keplerian element data for the satellite.

Feedback or suggestion? Click here.




ElementValue
Catalog46132
NameSTARLINK-1630
Epoch Orbit184
Epoch Day336.91667824
Epoch Year2020
RAAN312.7645
Inclination52.9992
Eccentricity0.0001609
Argument of Perigee71.3781
Mean Anonmoly221.3784
Mean Motion15.05580698
Decay Rate-4.618E-05
L11 46132U 20057R 20336.91667824 -.00004618 00000-0 -29793-3 0 9991
L22 46132 52.9992 312.7645 0001609 71.3781 221.3784 15.05580698 1842

Live tracking and technical data element details for STARLINK-1630 (NORAD 46132). STARLINK-1630 can be tracked NOW for your location showing map with azimuth and elevation plus other details from your city location.

Track the satellite on the map from your city or location and see movement details for azimuth, elevation, latitude, longitude, range, height, and movement on the map or in text.







IsCatalogInMostPopularTable: catalog: 46132, numindb: 20
Update: records affected: 1



GetName: 46132 STARLINK-1630

Hit Count: updated at: Thu, 03 Dec 2020 08:09:09 GMT